カタログに戻る

SL-14 DEB

運用中PO
NORAD 69734·DEBRIS·🇨🇳 China

打ち上げ Jan 17, 1986 から Plesetsk Cosmodrome

Loading…

次のパス (今後24時間)

TLE

最新Source: Space-Track

元期: Sep 14, 2026, 11:55 UTC

1 69734U 86006C   26257.49667383  .00000256  00000-0  28410-4 0  9999
2 69734  82.5463  90.0436 0113998  35.6662 325.2097 14.78043333 68637

AllMySatでSL-14 DEBをリアルタイム追跡

Download on the App Store